This is the latest recevied weather packets stored in our database for station/object K1KOF. If no packets are shown the sender has not sent any weather packets the latest 10 day(s).
| Time | Temp. | Humidity | Pressure | Rain* | Wind** | Luminosity | Snow |
|---|---|---|---|---|---|---|---|
| 1777766121 | 15° C | 87% | 1022.9 hPa | 0 mm | - | 4 W/m² | - |
| 1777765819 | 15° C | 86% | 1022.9 hPa | 0 mm | - | 9 W/m² | - |
| 1777765515 | 15° C | 85% | 1022.8 hPa | 0 mm | - | 12 W/m² | - |
| 1777765213 | 15° C | 85% | 1022.7 hPa | 0 mm | - | 17 W/m² | - |
| 1777764913 | 15° C | 84% | 1022.4 hPa | 0 mm | - | 21 W/m² | - |
| 1777764610 | 15° C | 83% | 1022.4 hPa | 0 mm | - | 28 W/m² | - |
| 1777764306 | 15.56° C | 84% | 1022.4 hPa | 0 mm | - | 33 W/m² | - |
| 1777764003 | 15.56° C | 83% | 1022.3 hPa | 0 mm | - | 34 W/m² | - |
| 1777763700 | 15.56° C | 83% | 1022.3 hPa | 0 mm | - | 38 W/m² | - |
| 1777763398 | 15.56° C | 83% | 1022.4 hPa | 0 mm | - | 43 W/m² | - |
| 1777763096 | 15.56° C | 83% | 1022.2 hPa | 0 mm | - | 54 W/m² | - |
| 1777762794 | 15.56° C | 82% | 1022.3 hPa | 0 mm | - | 62 W/m² | - |
| 1777762490 | 15.56° C | 81% | 1022.4 hPa | 0 mm | - | 55 W/m² | - |
| 1777762187 | 15.56° C | 81% | 1022 hPa | 0 mm | - | 39 W/m² | - |
| 1777761883 | 16.11° C | 80% | 1022.1 hPa | 0 mm | - | 67 W/m² | - |
| 1777761580 | 16.11° C | 81% | 1022.2 hPa | 0 mm | - | 100 W/m² | - |
| 1777761278 | 16.67° C | 81% | 1022.4 hPa | 0 mm | - | 65 W/m² | - |
| 1777760976 | 16.11° C | 81% | 1022.2 hPa | 0 mm | - | 99 W/m² | - |
| 1777760673 | 16.11° C | 80% | 1022.3 hPa | 0 mm | - | 79 W/m² | - |
| 1777760369 | 16.11° C | 79% | 1022 hPa | 0 mm | - | 66 W/m² | - |
| 1777760065 | 16.67° C | 79% | 1021.9 hPa | 0 mm | - | 71 W/m² | - |
| 1777759762 | 16.67° C | 80% | 1022.1 hPa | 0 mm | - | 115 W/m² | - |
| 1777759458 | 16.67° C | 77% | 1022 hPa | 0 mm | - | 279 W/m² | - |
| 1777759155 | 17.22° C | 78% | 1022 hPa | 0 mm | - | 262 W/m² | - |
| 1777758852 | 18.33° C | 73% | 1022 hPa | 0 mm | - | 363 W/m² | - |
* Rain latest hour (hover to see other rain measurements)
** Current wind speed in m/s (hover to see current wind gust speed)